sat.trackr.live / text

‹ back to catalog

STARLINK-37347

NORAD 68746 · 2026-082U

PAYLOAD ACTIVE UNKNOWN

§ Identity

Operator
Country
US
Launch date
2026-04-15
Launch site
AFWTR
Launch vehicle
Mass (kg)
RCS (m²)

Purposes: comms

External: N2YO · Heavens-Above · Gunter

§ Orbital elements

Epoch: 2026-09-19T01:09:08.270496Z

Period
93.91 min
Inclination
97.2841°
Eccentricity
0.0001816
Mean motion
15.33443542 rev/d
Perigee alt
464.3 km
Apogee alt
466.8 km
Semi-major
6,843.7 km
B*
3.6657e-4
RAAN
124.2293°
Arg perigee
91.5769°
Mean anomaly
268.5682°
Rev number
2,408

§ Raw data

STARLINK-373471 68746U 26082U   26262.04801239  .00011777  00000+0  36657-3 0  99962 68746  97.2841 124.2293 0001816  91.5769 268.5682 15.33443542 24085

JSON: /api/v1/satellites/68746 · /tle

For live sub-satellite position, see the globe view (requires WebGL).

§ Visibility from observer

Set your observer location to see the next 7 days of passes ≥ 10°. The values pass through the URL so the page stays shareable.

No JS? Fill the form by hand. The geolocation button needs JavaScript.